Las Vegas, NV

3:54 AM PDT on May 27, 2017 (GMT -0700)
McCarran International

Weather History for KLAS - October, 2012

Change the Weather History Date:

Tuesday, October 2, 2012

  Actual Average Record
Temperature  
Mean Temperature 85 °F 76 °F  
Max Temperature 99 °F 87 °F 100 °F (1980)
Min Temperature 71 °F 64 °F 43 °F (1959)
Degree Days  
Heating Degree Days 0 0  
Month to date heating degree days 0 0  
Since 1 July heating degree days 0 1  
Cooling Degree Days 20 11  
Month to date cooling degree days 40 22  
Year to date cooling degree days 3811 3399  
Growing Degree Days 35 (Base 50)    
Moisture  
Dew Point 28 °F    
Average Humidity 16    
Maximum Humidity 24    
Minimum Humidity 8    
Precipitation  
Precipitation 0.00 in 0.00 in 0.17 in (1941)
Month to date precipitation 0.00 0.01  
Year to date precipitation 3.88 3.07  
Snow  
Snow 0.00 in 0.00 in 0.00 in ()
Month to date snowfall 0.0 0.0  
Since 1 July snowfall 0.0 0.0  
Since 1 September snowfall 0.0 0.0  
Snow Depth 0.00 in    
Sea Level Pressure  
Sea Level Pressure 29.80 in    
Wind  
Wind Speed 8 mph (South)    
Max Wind Speed 14 mph    
Max Gust Speed 17 mph    
Visibility 10 miles    
Events      
T = Trace of Precipitation, MM = Missing Value Source: NWS Daily Summary

Daily Weather History Graph

Daily Weather History Graph

Search for Another Location

Airport or City:

Trip Planner

Search our weather history database for the weather conditions in past years. The results will help you decide how hot, cold, wet, or windy it might be!

Date:

Astronomy

Oct. 02, 2012 Rise Set
Actual Time 6:36 AM PDT 6:21 PM PDT
Civil Twilight 6:11 AM PDT 6:47 PM PDT
Nautical Twilight 5:41 AM PDT 7:17 PM PDT
Astronomical Twilight 5:11 AM PDT 7:47 PM PDT
Moon 7:44 PM PDT (10/2) 9:01 AM PDT (10/2)
Length of Visible Light 12h 36m
Length of Day
11h 44m
Waning Gibbous, 93% of the Moon is Illuminated
Oct 2
Waning Gibbous
Oct 8
Last Quarter
Oct 15
New
Oct 21
First Quarter
Oct 29
Full

Hourly Weather History & Observations

Time (PDT) Temp. Dew Point Humidity Pressure Visibility Wind Dir Wind Speed Gust Speed Precip Events Conditions
12:56 AM 77.0 °F 28.9 °F 17% 29.84 in 10.0 mi SSW 11.5 mph - N/A   Clear
1:56 AM 75.9 °F 28.9 °F 18% 29.84 in 10.0 mi SSW 10.4 mph - N/A   Clear
2:56 AM 75.0 °F 28.9 °F 18% 29.83 in 10.0 mi SSW 8.1 mph - N/A   Clear
3:56 AM 73.0 °F 30.0 °F 20% 29.84 in 10.0 mi SSW 6.9 mph - N/A   Clear
4:56 AM 73.0 °F 30.0 °F 20% 29.84 in 10.0 mi SSW 10.4 mph - N/A   Clear
5:56 AM 72.0 °F 30.0 °F 21% 29.85 in 10.0 mi SSW 5.8 mph - N/A   Clear
6:56 AM 71.1 °F 32.0 °F 24% 29.86 in 10.0 mi SSW 8.1 mph - N/A   Clear
7:56 AM 75.0 °F 30.9 °F 20% 29.87 in 10.0 mi South 8.1 mph - N/A   Clear
8:56 AM 79.0 °F 33.1 °F 19% 29.88 in 10.0 mi South 8.1 mph - N/A   Clear
9:56 AM 82.9 °F 35.1 °F 18% 29.88 in 10.0 mi SSE 6.9 mph - N/A   Clear
10:56 AM 88.0 °F 30.0 °F 12% 29.87 in 10.0 mi South 6.9 mph - N/A   Clear
11:56 AM 90.0 °F 30.0 °F 12% 29.85 in 10.0 mi SSE 6.9 mph - N/A   Clear
12:56 PM 93.2 °F 26.6 °F 9% 29.89 in 10.0 mi Calm Calm - N/A   Clear
1:56 PM 95.0 °F 27.0 °F 9% 29.77 in 10.0 mi SE 6.9 mph - N/A   Clear
2:56 PM 97.0 °F 28.0 °F 9% 29.75 in 10.0 mi Variable 3.5 mph - N/A   Clear
3:56 PM 98.1 °F 28.0 °F 8% 29.73 in 10.0 mi SE 3.5 mph - N/A   Clear
4:56 PM 99.0 °F 27.0 °F 8% 29.72 in 10.0 mi SSE 5.8 mph - N/A   Partly Cloudy
5:56 PM 96.8 °F 28.4 °F 9% 29.79 in 10.0 mi South 6.9 mph - N/A   Scattered Clouds
6:56 PM 93.2 °F 24.8 °F 9% 29.79 in 10.0 mi SSW 10.4 mph - N/A   Scattered Clouds
7:56 PM 91.0 °F 24.1 °F 9% 29.73 in 10.0 mi SSW 10.4 mph - N/A   Scattered Clouds
8:56 PM 89.1 °F 24.1 °F 9% 29.73 in 10.0 mi SSW 11.5 mph - N/A   Scattered Clouds
9:56 PM 86.0 °F 24.1 °F 10% 29.74 in 10.0 mi South 11.5 mph - N/A   Scattered Clouds
10:56 PM 82.9 °F 25.0 °F 12% 29.74 in 10.0 mi SSW 9.2 mph - N/A   Scattered Clouds
11:56 PM 82.0 °F 25.0 °F 12% 29.73 in 10.0 mi SSW 10.4 mph - N/A   Scattered Clouds